TimeMDT,TemperatureF,Dew PointF,Humidity,Sea Level PressureIn,VisibilityMPH,Wind Direction,Wind SpeedMPH,Gust SpeedMPH,PrecipitationIn,Events,Conditions,WindDirDegrees,DateUTC
12:53 AM,54.0,28.0,37,29.77,10.0,WNW,12.7,-,N/A,,Clear,290,2013-06-03 06:53:00
1:53 AM,48.0,34.0,58,29.80,10.0,Calm,Calm,-,N/A,,Clear,0,2013-06-03 07:53:00
2:53 AM,46.0,28.0,50,29.82,10.0,South,3.5,-,N/A,,Clear,190,2013-06-03 08:53:00
3:53 AM,45.0,30.0,56,29.83,10.0,South,8.1,-,N/A,,Clear,190,2013-06-03 09:53:00
4:53 AM,42.1,28.0,58,29.86,10.0,SSW,8.1,-,N/A,,Clear,200,2013-06-03 10:53:00
5:53 AM,44.1,28.0,53,29.88,10.0,SW,8.1,-,N/A,,Partly Cloudy,220,2013-06-03 11:53:00
6:53 AM,48.0,30.9,52,29.90,10.0,SSW,8.1,-,N/A,,Partly Cloudy,200,2013-06-03 12:53:00
7:53 AM,52.0,33.1,49,29.91,10.0,SW,12.7,-,N/A,,Partly Cloudy,230,2013-06-03 13:53:00
8:53 AM,55.0,33.1,43,29.94,10.0,SW,10.4,-,N/A,,Partly Cloudy,220,2013-06-03 14:53:00
9:53 AM,55.9,33.1,42,29.95,10.0,WSW,9.2,-,N/A,,Partly Cloudy,250,2013-06-03 15:53:00
10:53 AM,59.0,33.1,38,29.95,10.0,SW,11.5,-,N/A,,Partly Cloudy,220,2013-06-03 16:53:00
11:53 AM,62.1,33.1,34,29.95,10.0,West,10.4,-,N/A,,Partly Cloudy,260,2013-06-03 17:53:00
12:53 PM,64.9,30.9,28,29.95,10.0,West,15.0,23.0,N/A,,Partly Cloudy,270,2013-06-03 18:53:00
1:53 PM,66.9,32.0,27,29.96,10.0,West,10.4,-,N/A,,Partly Cloudy,270,2013-06-03 19:53:00
2:53 PM,68.0,28.0,22,29.95,10.0,SW,10.4,18.4,N/A,,Partly Cloudy,220,2013-06-03 20:53:00
3:53 PM,71.1,25.0,18,29.93,10.0,SW,16.1,24.2,N/A,,Partly Cloudy,230,2013-06-03 21:53:00
4:53 PM,71.1,24.1,17,29.93,10.0,WSW,15.0,25.3,N/A,,Partly Cloudy,240,2013-06-03 22:53:00
5:53 PM,71.1,24.1,17,29.91,10.0,SW,12.7,25.3,N/A,,Partly Cloudy,220,2013-06-03 23:53:00
6:53 PM,70.0,21.9,16,29.90,10.0,SW,18.4,-,N/A,,Partly Cloudy,230,2013-06-04 00:53:00
7:53 PM,68.0,25.0,20,29.89,10.0,WSW,15.0,-,N/A,,Partly Cloudy,240,2013-06-04 01:53:00
8:53 PM,63.0,30.9,30,29.91,10.0,SW,12.7,-,N/A,,Partly Cloudy,220,2013-06-04 02:53:00
9:53 PM,60.1,26.1,27,29.92,10.0,SSW,12.7,-,N/A,,Clear,200,2013-06-04 03:53:00
10:53 PM,57.9,23.0,26,29.91,10.0,SSW,11.5,-,N/A,,Clear,200,2013-06-04 04:53:00
11:53 PM,55.0,23.0,29,29.91,10.0,South,11.5,-,N/A,,Clear,190,2013-06-04 05:53:00